カタログに戻る

GOUMANG

運用中科学SSO
NORAD 53346·PAYLOAD·🇨🇳 China
この衛星名は、まだ公式ソースで確認されていません。

打ち上げ Aug 4, 2022 から Taiyuan Satellite Launch Center

Loading…

次のパス (今後24時間)

TLE

最新Source: Space-Track

元期: Sep 14, 2026, 14:34 UTC

1 53346U 22090A   26257.60759753  .00002807  00000-0  12752-3 0  9995
2 53346  97.3052 323.1421 0002913 198.6013 161.5118 15.21564852228406

AllMySatでGOUMANGをリアルタイム追跡

Download on the App Store